Change the Weather History Date:

Wednesday, October 10, 2012

  Actual Average Record
Temperature  
Mean Temperature 80 °F 75 °F  
Max Temperature 89 °F 93 °F 108 °F (1991)
Min Temperature 70 °F 57 °F 45 °F (2013)
Degree Days  
Heating Degree Days 0 0  
Month to date heating degree days 0 0  
Since 1 July heating degree days 0 0  
Cooling Degree Days 15 10  
Month to date cooling degree days 193 117  
Year to date cooling degree days 4052 3515  
Growing Degree Days 28 (Base 50)    
Moisture  
Dew Point 49 °F    
Average Humidity 37    
Maximum Humidity 53    
Minimum Humidity 20    
Precipitation  
Precipitation 0.00 in 0.01 in 0.45 in (1966)
Month to date precipitation 0.00 0.08  
Year to date precipitation 2.40 2.47  
Since 1 July precipitation 2.04 0.65  
Snow  
Snow 0.00 in - - ()
Month to date snowfall 0.0  
Year to date snowfall 0.0  
Since 1 July snowfall 0.0  
Snow Depth 0.00 in    
Sea Level Pressure  
Sea Level Pressure 29.81 in    
Wind  
Wind Speed 7 mph (NW)    
Max Wind Speed 15 mph    
Max Gust Speed 21 mph    
Visibility 10 miles    
Events      
T = Trace of Precipitation, MM = Missing Value Source: NWS Daily Summary

Daily Weather History Graph

Daily Weather History Graph

Search for Another Location

Airport or City:

Trip Planner

Search our weather history database for the weather conditions in past years. The results will help you decide how hot, cold, wet, or windy it might be!

Date:

Astronomy

Oct. 10, 2012 Rise Set
Actual Time 6:46 AM PDT 6:16 PM PDT
Civil Twilight 6:21 AM PDT 6:41 PM PDT
Nautical Twilight 5:52 AM PDT 7:10 PM PDT
Astronomical Twilight 5:23 AM PDT 7:38 PM PDT
Moon 1:40 AM PDT (10/10) 3:09 PM PDT (10/10)
Length of Visible Light 12h 20m
Length of Day
11h 30m
Waning Crescent, 26% of the Moon is Illuminated
Oct 10
Waning Crescent
Oct 15
New
Oct 21
First Quarter
Oct 29
Full
Nov 6
Last Quarter

Hourly Weather History & Observations

Time (PDT) Temp. Dew Point Humidity Pressure Visibility Wind Dir Wind Speed Gust Speed Precip Events Conditions
12:52 AM 75.0 °F 55.0 °F 50% 29.82 in 10.0 mi WNW 6.9 mph - N/A   Clear
1:52 AM 73.9 °F 54.0 °F 50% 29.83 in 10.0 mi NNW 8.1 mph - N/A   Clear
2:52 AM 73.0 °F 54.0 °F 51% 29.83 in 10.0 mi NW 8.1 mph - N/A   Clear
3:52 AM 73.0 °F 53.1 °F 49% 29.82 in 10.0 mi NNW 13.8 mph - N/A   Clear
4:52 AM 71.1 °F 53.1 °F 53% 29.82 in 10.0 mi NNW 9.2 mph - N/A   Clear
5:52 AM 72.0 °F 52.0 °F 49% 29.84 in 10.0 mi NNW 12.7 mph - N/A   Clear
6:52 AM 70.0 °F 52.0 °F 53% 29.85 in 10.0 mi NW 8.1 mph - N/A   Clear
7:52 AM 70.0 °F 51.1 °F 51% 29.87 in 10.0 mi North 3.5 mph - N/A   Clear
8:52 AM 75.0 °F 51.1 °F 43% 29.88 in 10.0 mi NW 9.2 mph - N/A   Clear
9:52 AM 78.1 °F 51.1 °F 39% 29.88 in 10.0 mi NW 10.4 mph - N/A   Clear
10:52 AM 81.0 °F 46.9 °F 30% 29.87 in 10.0 mi NW 6.9 mph - N/A   Clear
11:52 AM 82.9 °F 48.0 °F 29% 29.86 in 10.0 mi WNW 9.2 mph - N/A   Clear
12:52 PM 84.0 °F 46.0 °F 26% 29.82 in 10.0 mi Variable 3.5 mph - N/A   Clear
1:52 PM 82.9 °F 44.1 °F 25% 29.80 in 10.0 mi WNW 5.8 mph - N/A   Partly Cloudy
2:52 PM 84.9 °F 43.0 °F 23% 29.78 in 10.0 mi NW 5.8 mph - N/A   Clear
3:52 PM 87.1 °F 42.1 °F 21% 29.76 in 10.0 mi Calm Calm - N/A   Clear
4:52 PM 87.1 °F 41.0 °F 20% 29.74 in 10.0 mi Calm Calm - N/A   Clear
5:52 PM 84.9 °F 43.0 °F 23% 29.74 in 10.0 mi Calm Calm - N/A   Clear
6:52 PM 82.0 °F 45.0 °F 27% 29.75 in 10.0 mi NNW 8.1 mph - N/A   Clear
7:52 PM 79.0 °F 48.9 °F 35% 29.76 in 10.0 mi NNW 12.7 mph - N/A   Clear
8:52 PM 77.0 °F 51.1 °F 40% 29.78 in 10.0 mi NNW 12.7 mph - N/A   Clear
9:52 PM 77.0 °F 51.1 °F 40% 29.81 in 10.0 mi NNW 12.7 mph - N/A   Clear
10:52 PM 73.0 °F 51.1 °F 46% 29.78 in 10.0 mi NNW 13.8 mph - N/A   Clear
11:52 PM 72.0 °F 50.0 °F 46% 29.80 in 10.0 mi NNW 15.0 mph 23.0 mph N/A   Clear